When you browse on this site, cookies collect data to enhance your experience and personalize the content and advertising you see.
Visit our Privacy Policy to learn more. By continuing to use the site, you agree to this use of cookies and data.
  • In Schweiz
  • Länderverzeichnis
  • Für 7 Tage
  • Wassertemperatur
  • Wetterkarte
  • Widgets
  • user-avatar
    Anmelden

    Stündliche Wetter Muiinga

    Heute, 8 April, Mittwoch

    Zeit Temperatur Niederschläge Wind Luftdruck Luftfeuchtigkeit
    00:00 +18°C° 0.2 mm 1 m/S 628 mmHg 94%
    01:00 +18°C° 0.2 mm 1 m/S 627 mmHg 95%
    02:00 +18°C° 0.2 mm 1 m/S 627 mmHg 95%
    03:00 +18°C° 0 mm 1 m/S 627 mmHg 96%
    04:00 +16°C° 0 mm 1 m/S 627 mmHg 96%
    05:00 +16°C° 0 mm 1 m/S 627 mmHg 96%
    06:00 +16°C° 0 mm 0 m/S 628 mmHg 93%
    07:00 +17°C° 0 mm 0 m/S 629 mmHg 91%
    08:00 +19°C° 0 mm 0 m/S 630 mmHg 89%
    09:00 +22°C° 0.8 mm 1 m/S 630 mmHg 86%
    10:00 +23°C° 0.8 mm 1 m/S 630 mmHg 83%
    11:00 +24°C° 0.8 mm 2 m/S 631 mmHg 81%
    12:00 +24°C° 1.2 mm 2 m/S 630 mmHg 80%
    13:00 +25°C° 1.2 mm 2 m/S 629 mmHg 79%
    14:00 +25°C° 1.2 mm 2 m/S 628 mmHg 78%
    15:00 +24°C° 2.4 mm 1 m/S 628 mmHg 82%
    16:00 +23°C° 2.4 mm 1 m/S 628 mmHg 86%
    17:00 +22°C° 2.4 mm 1 m/S 627 mmHg 91%
    18:00 +21°C° 1.2 mm 1 m/S 627 mmHg 92%
    19:00 +20°C° 1.2 mm 1 m/S 627 mmHg 94%
    20:00 +19°C° 1.2 mm 1 m/S 628 mmHg 96%
    21:00 +19°C° 0.4 mm 1 m/S 628 mmHg 96%
    22:00 +18°C° 0.4 mm 1 m/S 628 mmHg 96%
    23:00 +18°C° 0.4 mm 1 m/S 628 mmHg 96%

    Morgen, 9 April, Donnerstag

    Zeit Temperatur Niederschläge Wind Luftdruck Luftfeuchtigkeit
    00:00 +18°C° 0.5 mm 1 m/S 628 mmHg 96%
    01:00 +18°C° 0.5 mm 1 m/S 628 mmHg 97%
    02:00 +17°C° 0.5 mm 2 m/S 627 mmHg 97%
    03:00 +18°C° 0.1 mm 1 m/S 627 mmHg 96%
    04:00 +16°C° 0.1 mm 1 m/S 627 mmHg 96%
    05:00 +16°C° 0.1 mm 1 m/S 627 mmHg 95%
    06:00 +18°C° 0 mm 1 m/S 628 mmHg 93%
    07:00 +17°C° 0 mm 0 m/S 629 mmHg 91%
    08:00 +18°C° 0 mm 0 m/S 630 mmHg 88%
    09:00 +21°C° 0.1 mm 1 m/S 630 mmHg 85%
    10:00 +22°C° 0.1 mm 1 m/S 630 mmHg 81%
    11:00 +23°C° 0.1 mm 1 m/S 630 mmHg 77%
    12:00 +24°C° 1.7 mm 1 m/S 629 mmHg 78%
    13:00 +24°C° 1.7 mm 1 m/S 629 mmHg 79%
    14:00 +25°C° 1.7 mm 1 m/S 628 mmHg 79%
    15:00 +23°C° 2.1 mm 2 m/S 628 mmHg 84%
    16:00 +21°C° 2.1 mm 2 m/S 627 mmHg 88%
    17:00 +20°C° 2.1 mm 2 m/S 627 mmHg 92%
    18:00 +19°C° 1 mm 2 m/S 627 mmHg 93%
    19:00 +19°C° 1 mm 1 m/S 627 mmHg 94%
    20:00 +18°C° 1 mm 1 m/S 628 mmHg 95%
    21:00 +18°C° 0 mm 1 m/S 627 mmHg 95%
    22:00 +16°C° 0 mm 1 m/S 627 mmHg 94%
    23:00 +15°C° 0 mm 0 m/S 627 mmHg 94%

    übermorgen, 10 April, Freitag

    Zeit Temperatur Niederschläge Wind Luftdruck Luftfeuchtigkeit
    00:00 +16°C° 0 mm 1 m/S 627 mmHg 94%
    01:00 +16°C° 0 mm 1 m/S 627 mmHg 95%
    02:00 +16°C° 0 mm 1 m/S 627 mmHg 95%
    03:00 +16°C° 0 mm 1 m/S 627 mmHg 96%
    04:00 +16°C° 0 mm 1 m/S 627 mmHg 96%
    05:00 +15°C° 0 mm 1 m/S 627 mmHg 97%
    06:00 +18°C° 0 mm 1 m/S 628 mmHg 95%
    07:00 +19°C° 0 mm 1 m/S 629 mmHg 93%
    08:00 +20°C° 0 mm 1 m/S 630 mmHg 91%
    09:00 +21°C° 0.9 mm 1 m/S 630 mmHg 90%
    10:00 +21°C° 0.9 mm 2 m/S 630 mmHg 89%
    11:00 +21°C° 0.9 mm 2 m/S 630 mmHg 88%
    12:00 +23°C° 1.6 mm 2 m/S 629 mmHg 87%
    13:00 +23°C° 1.6 mm 2 m/S 629 mmHg 86%
    14:00 +23°C° 1.6 mm 2 m/S 628 mmHg 85%
    15:00 +23°C° 0.8 mm 2 m/S 628 mmHg 87%
    16:00 +22°C° 0.8 mm 1 m/S 628 mmHg 89%
    17:00 +22°C° 0.8 mm 1 m/S 628 mmHg 91%
    18:00 +21°C° 0.6 mm 1 m/S 627 mmHg 93%
    19:00 +20°C° 0.6 mm 1 m/S 627 mmHg 95%
    20:00 +18°C° 0.6 mm 1 m/S 627 mmHg 96%
    21:00 +18°C° 0.1 mm 1 m/S 627 mmHg 96%
    22:00 +18°C° 0.1 mm 1 m/S 627 mmHg 96%
    23:00 +16°C° 0.1 mm 1 m/S 627 mmHg 96%

    11 April, Samstag

    Zeit Temperatur Niederschläge Wind Luftdruck Luftfeuchtigkeit
    00:00 +16°C° 0.2 mm 1 m/S 627 mmHg 96%
    01:00 +16°C° 0.2 mm 1 m/S 627 mmHg 97%
    02:00 +16°C° 0.2 mm 1 m/S 627 mmHg 97%
    03:00 +16°C° 0 mm 1 m/S 627 mmHg 97%
    04:00 +15°C° 0 mm 0 m/S 627 mmHg 97%
    05:00 +15°C° 0 mm 0 m/S 627 mmHg 97%
    06:00 +16°C° 0.1 mm 0 m/S 628 mmHg 95%
    07:00 +19°C° 0.1 mm 1 m/S 629 mmHg 94%
    08:00 +20°C° 0.1 mm 1 m/S 630 mmHg 92%
    09:00 +21°C° 0.2 mm 1 m/S 630 mmHg 89%
    10:00 +21°C° 0.2 mm 2 m/S 630 mmHg 85%
    11:00 +23°C° 0.2 mm 2 m/S 630 mmHg 81%
    12:00 +23°C° 0.8 mm 2 m/S 629 mmHg 81%
    13:00 +23°C° 0.8 mm 2 m/S 628 mmHg 81%
    14:00 +24°C° 0.8 mm 2 m/S 628 mmHg 81%
    15:00 +24°C° 0.5 mm 2 m/S 627 mmHg 83%
    16:00 +23°C° 0.5 mm 1 m/S 627 mmHg 85%
    17:00 +23°C° 0.5 mm 1 m/S 627 mmHg 88%
    18:00 +21°C° 1.2 mm 1 m/S 627 mmHg 91%
    19:00 +20°C° 1.2 mm 1 m/S 627 mmHg 93%
    20:00 +19°C° 1.2 mm 1 m/S 627 mmHg 96%
    21:00 +18°C° 0.3 mm 1 m/S 627 mmHg 96%
    22:00 +18°C° 0.3 mm 1 m/S 627 mmHg 96%
    23:00 +18°C° 0.3 mm 1 m/S 627 mmHg 96%

    12 April, Sonntag

    Zeit Temperatur Niederschläge Wind Luftdruck Luftfeuchtigkeit
    00:00 +18°C° 0 mm 1 m/S 627 mmHg 97%
    01:00 +16°C° 0 mm 1 m/S 627 mmHg 97%
    02:00 +16°C° 0 mm 1 m/S 627 mmHg 97%
    03:00 +16°C° 0 mm 1 m/S 627 mmHg 97%
    04:00 +15°C° 0 mm 0 m/S 627 mmHg 97%
    05:00 +14°C° 0 mm 0 m/S 627 mmHg 97%
    06:00 +18°C° 0 mm 1 m/S 628 mmHg 95%
    07:00 +19°C° 0 mm 1 m/S 629 mmHg 94%
    08:00 +20°C° 0 mm 1 m/S 629 mmHg 92%
    09:00 +21°C° 0.3 mm 1 m/S 630 mmHg 87%
    10:00 +23°C° 0.3 mm 2 m/S 630 mmHg 81%
    11:00 +24°C° 0.3 mm 2 m/S 630 mmHg 76%
    12:00 +24°C° 0.9 mm 2 m/S 629 mmHg 77%
    13:00 +24°C° 0.9 mm 2 m/S 629 mmHg 78%
    14:00 +25°C° 0.9 mm 2 m/S 628 mmHg 79%
    15:00 +24°C° 0.7 mm 2 m/S 628 mmHg 82%
    16:00 +24°C° 0.7 mm 1 m/S 627 mmHg 85%
    17:00 +23°C° 0.7 mm 1 m/S 627 mmHg 88%
    18:00 +22°C° 1.4 mm 1 m/S 627 mmHg 90%
    19:00 +20°C° 1.4 mm 1 m/S 627 mmHg 92%
    20:00 +17°C° 1.4 mm 0 m/S 627 mmHg 94%
    21:00 +16°C° 0.1 mm 0 m/S 627 mmHg 94%
    22:00 +16°C° 0.1 mm 0 m/S 627 mmHg 94%
    23:00 +16°C° 0.1 mm 0 m/S 627 mmHg 94%

    13 April, Montag

    Zeit Temperatur Niederschläge Wind Luftdruck Luftfeuchtigkeit
    00:00 +16°C° 0 mm 0 m/S 627 mmHg 94%
    01:00 +15°C° 0 mm 0 m/S 627 mmHg 95%
    02:00 +16°C° 0 mm 1 m/S 626 mmHg 96%
    03:00 +16°C° 0 mm 1 m/S 626 mmHg 96%
    04:00 +15°C° 0 mm 0 m/S 626 mmHg 96%
    05:00 +15°C° 0 mm 0 m/S 627 mmHg 96%
    06:00 +16°C° 0 mm 0 m/S 627 mmHg 94%
    07:00 +17°C° 0 mm 0 m/S 628 mmHg 92%
    08:00 +19°C° 0 mm 0 m/S 629 mmHg 90%
    09:00 +22°C° 0.7 mm 1 m/S 630 mmHg 84%
    10:00 +23°C° 0.7 mm 2 m/S 630 mmHg 79%
    11:00 +25°C° 0.7 mm 2 m/S 630 mmHg 74%
    12:00 +25°C° 0.9 mm 2 m/S 629 mmHg 75%
    13:00 +25°C° 0.9 mm 2 m/S 628 mmHg 76%
    14:00 +25°C° 0.9 mm 2 m/S 628 mmHg 77%
    15:00 +24°C° 1.1 mm 1 m/S 627 mmHg 81%
    16:00 +24°C° 1.1 mm 1 m/S 627 mmHg 85%
    17:00 +23°C° 1.1 mm 1 m/S 627 mmHg 88%
    18:00 +22°C° 1.7 mm 1 m/S 627 mmHg 89%
    19:00 +19°C° 1.7 mm 0 m/S 627 mmHg 89%
    20:00 +17°C° 1.7 mm 0 m/S 627 mmHg 90%
    21:00 +17°C° 0.6 mm 0 m/S 627 mmHg 91%
    22:00 +17°C° 0.6 mm 0 m/S 627 mmHg 92%
    23:00 +17°C° 0.6 mm 0 m/S 628 mmHg 93%
    Mehr zeigen